sat.trackr.live / text

‹ back to catalog

STARLINK-11346 [DTC]

NORAD 61697 · 2024-195L

PAYLOAD ACTIVE UNKNOWN

§ Identity

Operator
Country
US
Launch date
2024-10-30
Launch site
AFWTR
Launch vehicle
Mass (kg)
RCS (m²)

Purposes: comms

External: N2YO · Heavens-Above · Gunter

§ Orbital elements

Epoch: 2026-05-25T00:15:29.797056Z

Period
91.74 min
Inclination
53.1585°
Eccentricity
0.0000688
Mean motion
15.69716210 rev/d
Perigee alt
359.2 km
Apogee alt
360.2 km
Semi-major
6,737.8 km
B*
1.9293e-5
RAAN
9.8076°
Arg perigee
69.9245°
Mean anomaly
290.1847°
Rev number
9,102

§ Raw data

STARLINK-11346 [DTC]1 61697U 24195L   26145.01076154  .00001750  00000+0  19293-4 0  99922 61697  53.1585   9.8076 0000688  69.9245 290.1847 15.69716210 91026

JSON: /api/v1/satellites/61697 · /tle

For live sub-satellite position, see the globe view (requires WebGL).

§ Visibility from observer

Set your observer location to see the next 7 days of passes ≥ 10°. The values pass through the URL so the page stays shareable.

No JS? Fill the form by hand. The geolocation button needs JavaScript.